Location: Newark
(34.6283°N, 36.0776°E)
Time: 16:59:56
(UTC+00:00)

S-56A Canister/Altair - Pass Details

Date: 18 October 2019
Orbit: 634 x 2498 km, 38.9° (Epoch: 20 November)

Event Time Altitude Azimuth Distance (km) Brightness Sun altitude
Rises 07:23:53 0° 289° (WNW) 5,168 11.4 37.9°
Reaches altitude 10° 07:27:10 10° 283° (WNW) 4,397 11.1 38.3°
Maximum altitude 07:38:44 43° 218° (SW) 3,033 11.2 39.6°
Drops below altitude 10° 07:52:26 10° 153° (SSE) 5,144 12.9 41.1°
Sets 07:56:41 0° 147° (SSE) 6,097 13.0 41.5°
